Zurück zum Katalog

FENGYUN 1C DEB

AktivPO
NORAD 31813·DEBRIS·🇨🇳 China

Gestartet May 10, 1999 von Taiyuan Satellite Launch Center

Loading…

Nächste Überflüge (nächste 24 Stunden)

TLE

AktuellSource: Space-Track

Epoche: Sep 14, 2026, 06:42 UTC

1 31813U 99025CHB 26257.27941722  .00001516  00000-0  35667-3 0  9990
2 31813  99.4295  14.4191 0133969 237.1052 121.7191 14.50866192 12442

Verfolge FENGYUN 1C DEB in Echtzeit mit AllMySat

Download on the App Store